Other Public Products
Issued by NWS Grand Forks, ND

Home | Current Version | Previous Version | Graphics & Text | Print | Product List | Glossary On
Versions: 1 2 3 4 5 6 7 8 9 10 11 12 13 14 15 16 17 18 19 20 21 22 23 24 25 26 27 28 29 30 31 32 33 34 35 36 37 38 39 40 41 42 43 44 45 46 47 48 49 50
804
FPUS83 KFGF 270931
OPUFGF
PRAIRIE TO PINES WEATHER ROUNDUP
NATIONAL WEATHER SERVICE EASTERN NORTH DAKOTA/GRAND FORKS ND
400 AM CDT TUE JUN 27 2017

 **SATELLITE DATA USED TO AUGMENT SKY COVER AT AUTOMATED STATIONS**
 *****  WEATHER ACROSS EASTERN NORTH DAKOTA  *****

CITY           SKY/WX    TMP DP  RH WIND       PRES   REMARKS
GRAND FORKS    FAIR      48  42  80 S8        29.96F
GRAND FORKS AF FAIR      49  40  71 S6        29.95F
GRAND CITY NWS NOT AVBL
BUXTON           N/A     52  43  72 S6          N/A
DEVILS LAKE    FAIR      58  43  57 S14       29.93F
FARGO          FAIR      53  41  63 S9        30.00F
WAHPETON ARPT  FAIR      46  39  76 S7        30.03F
$$

 *****  WEATHER ACROSS CENTRAL AND WESTERN NORTH DAKOTA  *****

CITY           SKY/WX    TMP DP  RH WIND       PRES   REMARKS
JAMESTOWN      FAIR      49  40  71 S8        29.97F
BISMARCK       FAIR      60  40  47 S13G24    29.93F
MINOT          FAIR      63  39  41 S22G31    29.82F
MINOT AFB      FAIR      62  40  45 S15       29.81F
GARRISON         N/A     61  40  45 S16G24    29.86F
WILLISTON      FAIR      68  42  38 S12       29.76F
DICKINSON      FAIR      59  33  37 S25G33    29.80F
HETTINGER      FAIR      58  35  42 SE14G22   29.86F
$$

 *****  OTHER OBSERVATIONS NORTHEAST NORTH DAKOTA  *****

CITY           SKY/WX    TMP DP  RH WIND       PRES   REMARKS
WALHALLA       NOT AVBL
LANGDON        FAIR      52  45  76 S12       29.92F
CAVALIER       FAIR      52  43  71 S6        29.92F
GRAFTON        FAIR      43  41  93 S9        29.95F
CANDO          NOT AVBL
FORT TOTTEN      N/A     53  41  63 S9        29.95S
ROLLA            N/A     50  43  76 SW10      29.90F
RUGBY          NOT AVBL
 ***** THE ABOVE OBSERVATIONS ARE NON NWS ARE NOT QUALITY
        CONTROLLED AND MAY MIS-REPORT RAIN FOR SNOW...
$$

 *****  OTHER OBSERVATIONS SOUTHEAST NORTH DAKOTA *****

CITY           SKY/WX    TMP DP  RH WIND       PRES   REMARKS
COOPERSTOWN    FAIR      50  43  76 S8        29.97F
VALLEY CITY    FAIR      48  43  81 S8        30.00F
OAKES          NOT AVBL
GWINNER        CLOUDY    50  43  76 S9        30.01F
SHEYENNE NWR     N/A     46  41  82 SW5       29.95S
BUFFALO          N/A     54  35  49 E9          N/A
WYNDMERE       NOT AVBL
 ***** THE ABOVE OBSERVATIONS ARE NON NWS ARE NOT QUALITY
       CONTROLLED AND MAY MIS-REPORT RAIN FOR SNOW...
$$

  *****  WEATHER ACROSS NORTHERN MINNESOTA  *****

CITY           SKY/WX    TMP DP  RH WIND       PRES   REMARKS
FLAG ISLAND    FAIR      55  48  76 SW7       29.95S
WARROAD          N/A     48  45  87 S5        29.97F
ROSEAU         FAIR      46  43  87 S7        29.96F
HALLOCK        FAIR      43  39  87 S8        29.94F
THF RVR FALLS  FAIR      50  41  71 S7        30.00S
HALSTAD          N/A     44  39  85 S9          N/A
FOSSTON        FAIR      45  39  81 S7        30.02S
BAUDETTE       FAIR      47  42  83 SW3       29.98S
WASKISH        FAIR      46  45  93 CALM      30.00S
CROOKSTON      FAIR      46  41  81 S7        29.99S
$$
  *****  WEATHER ACROSS CENTRAL AND WEST MINNESOTA  *****

CITY           SKY/WX    TMP DP  RH WIND       PRES   REMARKS
BEMIDJI        FAIR      47  41  79 SW5       30.02F
PARK RAPIDS    FAIR      50  40  68 S3        30.04F
WADENA         FAIR      46  41  81 CALM      30.05S
DETROIT LAKES  FAIR      54  43  66 SW7       30.05S
MOORHEAD       FAIR      54  41  62 S7        30.02F
FERGUS FALLS   FAIR      54  43  66 S8        30.03F
ELBOW LAKE     FAIR      47  43  84 S7        30.06F
MORRIS MN      FAIR      52  43  71 S7        30.06F
STAPLES        FAIR      45  41  87 S3        30.06S
WHEATON        FAIR      54  41  62 S8        30.06F
$$
  *****  WEATHER ELSEWHERE ACROSS MINNESOTA  *****

CITY           SKY/WX    TMP DP  RH WIND       PRES   REMARKS
DULUTH         FAIR      47  43  86 W6        30.03S
INTRNTL FALLS  FAIR      43  41  93 CALM      29.98F
ELY            FAIR      46  45  93 SW3       30.01S
CLOQUET        FAIR      50  41  71 W5        30.04S
BRAINERD       FAIR      44  42  93 S5        30.06F
HIBBING        FAIR      38  38 100 CALM      30.02F
ALEXANDRIA     FAIR      51  42  71 SW8       30.08F
SAINT CLOUD    FAIR      43  43 100 CALM      30.08S
MINNEAPOLIS    FAIR      56  46  69 SW3       30.09F
$$

  *****  WEATHER ACROSS SOUTH DAKOTA  *****

CITY           SKY/WX    TMP DP  RH WIND       PRES   REMARKS
SIOUX FALLS    FAIR      53  43  68 S9        30.10F
BROOKINGS      FAIR      48  41  76 SE7       30.10F
WATERTOWN      FAIR      49  40  71 S6        30.07F
HURON          FAIR      51  42  71 S9        30.05F
SISSETON         N/A     49  41  74 S9        30.03F
ABERDEEN       FAIR      45  41  86 S9        30.03F
MITCHELL       FAIR      53  43  68 S10       30.07F
PIERRE         FAIR      55  40  56 SE12      29.98F
MOBRIDGE       FAIR      60  39  45 SE14      29.94F
RAPID CITY     FAIR      62  41  46 S15       29.90F
$$

  *****  SOME WEATHER IN NEARBY STATES *****

CITY           SKY/WX    TMP DP  RH WIND       PRES   REMARKS
GLASGOW MT     FAIR      68  39  34 E10       29.63F
GREAT FALLS MT LGT RAIN  71  46  40 SW17      29.80R
CHEYENNE WY    CLOUDY    56  53  90 S8        30.09F
SCOTTSBLUFF NE FAIR      63  54  72 SE13      30.00F
OMAHA NE       FAIR      54  49  83 CALM      30.13F
DES MOINES IA  FAIR      56  46  69 CALM      30.15S
DAVENPORT IA   FAIR      47  45  93 CALM      30.13F
CHICAGO IL     FAIR      54  45  71 W7        30.09F
EAU CLAIRE WI  FAIR      50  47  89 SW6       30.07F
LA CROSSE WI   FAIR      56  50  80 S6        30.10S
$$

  *****  SOME NATIONAL WEATHER *****

CITY           SKY/WX    TMP DP  RH WIND       PRES   REMARKS
LA GUARDIA NY  NOT AVBL
RALEIGH NC     FAIR      63  60  90 NW3       30.03R
ATLANTA GA     MOCLDY    68  59  73 NW6       30.06F
NEW ORLEANS LA MOCLDY    76  74  93 CALM      30.02S
OKLAHOMA CITY  MOCLDY    66  62  87 S6        30.05F
ALBUQUERQUE NM FAIR      65  51  60 E8        30.18F
SALT LAKE CITY MOCLDY    81  47  30 S10       29.85R
LOS ANGELES CA FAIR      65  59  81 VRB3      29.87S
BOISE ID       FAIR      68  49  50 W10       29.87F
SEATTLE WA     FAIR      54  50  86 SW5       30.03S
$$

*** WEATHER ACROSS MANITOBA...SASKATCHEWAN AND ONTARIO ***
                ***ONTARIO***

CITY           SKY/WX    TMP DP  RH WIND       PRES   REMARKS
GERALDTON      CLOUDY    50  48  93 SW3       29.89F
THUNDER BAY    PTCLDY    46  46 100 W5        29.96F
SIOUX LOOKOUT  PTCLDY    45  43  93 SW3       29.92S
TORONTO        LGT RAIN  54  48  82 W7        29.91S
BIG TROUT LK   LGT RAIN  52  52 100 VRB2      29.74S
PICKLE LAKE    NOT AVBL
DRYDEN         CLEAR     50  46  87 SW8       29.94S
KENORA         PTCLDY    52  48  87 SW5       29.95S
$$
                *** MANITOBA***

CITY           SKY/WX    TMP DP  RH WIND       PRES   REMARKS
BRANDON        MOCLDY    46  43  87 E7        29.83F
DAUPHIN        PTCLDY    64  43  45 SW21G31   29.74F
ISLAND LAKE    PTCLDY    59  41  51 W9        29.74S
PILOT MOUND      N/A     46  43  87 S10         N/A
THE PAS        MOCLDY    54  46  76 SE6       29.73F
THOMPSON       PTCLDY    52  46  82 NE9       29.76R
WINNIPEG       PTCLDY    54  41  62 S10       29.90F
LYNN LAKE      CLEAR     52  45  76 E9        29.77S
CHURCHILL      PTCLDY    39  37  93 NE13      29.88R
GILLAM         CLOUDY    48  45  87 N16       29.76R
$$
                ***SASKATCHEWAN***

CITY           SKY/WX    TMP DP  RH WIND       PRES   REMARKS
ESTEVAN        MOCLDY    61  45  55 S14       29.72F
KINDERSLEY     PTCLDY    57  52  82 S9        29.48F
LLOYDMINSTER   PTCLDY    57  54  88 VRB13G24  29.50R
PRINCE ALBERT  MOCLDY    61  50  67 E8        29.57F
REGINA         PTCLDY    59  45  58 SE17      29.64F
YORKTON        PTCLDY    59  45  58 S13       29.69F



USA.gov is the U.S. government's official web portal to all federal, state and local government web resources and services.